Theta_e
339 339 337 336 335 335 336 336 336 336 337 338 338 337 336 336 336 335 334 333 333 333 333 334 333 332 331 330 330 329 329 330 332 331 331 334 336 339 345 347 345 344 344 343 342 341 339 339 338 337 336 335 334 333 333 333 333 333 332 332 332 333 333 331 330 329 330 330 330 331 332 332 333 333 333 334 334 335 336 337 337 336 333 332 333
340 340 338 337 335 334 335 335 335 336 337 336 338 338 337 336 336 335 335 334 334 334 336 334 333 333 331 331 330 329 329 329 330 331 331 333 335 338 346 347 346 345 344 344 343 342 340 339 339 338 336 335 336 333 333 332 332 332 333 332 332 333 333 331 331 330 330 330 331 332 333 333 332 333 334 334 335 336 336 337 336 336 332 333 333
340 339 338 338 336 335 334 334 335 335 336 337 338 338 338 337 336 336 335 334 334 335 335 333 333 332 333 331 331 331 330 330 331 331 330 332 334 337 343 348 347 345 344 344 343 343 342 341 339 339 338 336 336 335 335 334 332 332 332 331 331 331 333 332 331 331 330 331 331 332 333 334 334 334 335 336 336 337 337 335 335 334 331 332 333
340 338 337 336 336 335 334 334 334 335 336 336 337 338 337 337 337 336 335 334 334 333 333 332 331 331 331 330 330 330 329 329 330 331 331 332 333 336 341 346 347 345 344 344 345 344 343 342 341 340 338 337 336 336 336 335 334 333 332 331 330 331 332 332 332 331 331 332 333 333 335 335 336 336 337 337 338 338 336 335 333 332 330 332 333
339 338 338 336 336 335 334 335 335 335 336 337 337 337 337 336 336 337 336 334 332 332 331 332 330 331 331 330 331 329 329 328 329 331 331 332 333 335 338 344 345 346 345 344 344 345 344 343 342 341 340 338 337 337 335 336 335 335 334 333 331 332 332 333 333 332 332 333 334 335 336 336 337 337 338 339 338 337 336 334 334 332 333 333 332
337 336 337 335 335 335 335 334 335 335 335 336 335 336 335 335 335 335 336 336 334 334 333 331 332 331 330 330 330 330 329 329 329 330 331 332 333 335 337 342 344 344 344 344 343 344 344 344 343 342 340 339 338 337 336 335 335 335 335 334 333 333 333 333 332 332 333 334 335 335 336 337 338 338 339 338 336 336 333 334 333 332 332 333 333
338 337 336 335 334 334 334 335 335 335 335 335 335 335 335 335 335 334 334 334 333 334 333 332 331 330 330 331 330 329 329 328 329 330 331 332 333 334 337 340 341 342 343 342 343 343 343 344 342 342 341 340 339 338 337 336 335 335 335 334 335 334 334 333 333 333 333 334 335 336 337 338 338 337 337 337 337 337 335 333 333 333 333 335 336
339 338 336 335 335 334 335 335 335 335 335 335 335 334 334 334 335 335 333 333 333 332 332 330 329 328 329 329 328 330 329 329 331 331 332 332 332 334 337 339 340 341 342 341 342 342 343 343 343 342 342 342 341 339 339 338 337 335 335 335 336 336 335 335 334 333 333 334 336 337 338 338 337 337 338 335 336 336 335 335 334 335 336 337 336
340 339 338 336 336 335 335 335 335 335 335 335 335 336 335 334 334 335 334 333 332 330 331 330 329 329 329 328 328 331 331 331 332 332 332 331 331 333 335 337 339 342 343 340 341 341 343 343 342 342 343 343 343 340 339 338 338 337 336 335 335 336 336 335 336 334 334 335 336 338 338 338 338 338 337 336 337 337 337 337 337 337 337 337 337
340 340 338 338 337 336 335 335 335 335 335 335 333 335 335 334 333 334 334 332 330 329 328 329 330 330 330 329 329 331 332 332 333 337 333 331 331 331 333 336 338 339 340 340 340 340 341 343 343 342 343 343 343 342 341 340 338 337 337 336 336 336 336 335 337 335 335 336 338 338 338 338 338 338 338 337 338 337 338 339 338 338 338 337 337
340 340 339 339 338 337 336 336 336 336 335 333 332 333 333 334 332 333 334 332 330 330 329 330 330 329 328 328 331 332 332 332 335 336 333 333 332 332 333 334 335 337 339 339 339 339 340 341 343 342 342 343 343 344 342 341 340 338 338 338 337 337 336 336 338 338 337 338 339 338 339 338 338 338 338 336 338 338 339 339 339 338 338 338 336
340 340 339 339 338 338 337 337 336 336 333 331 331 331 331 332 332 332 332 331 332 331 331 330 331 329 331 333 331 331 332 335 335 334 335 334 335 336 333 333 333 335 336 337 338 338 339 339 341 341 341 342 343 343 343 342 342 341 339 339 339 338 336 336 336 339 339 338 338 339 339 338 338 338 339 339 339 340 339 339 339 339 339 338 337
341 340 339 340 339 338 337 337 337 335 332 331 331 331 332 333 333 333 331 329 330 332 332 332 329 328 328 328 330 332 337 335 334 334 334 335 336 338 336 336 334 333 335 336 337 337 338 338 338 340 341 340 342 343 343 343 342 342 340 339 339 339 339 339 338 340 339 338 338 338 338 338 338 339 339 339 340 340 340 340 339 339 339 337 337
341 340 340 339 339 338 337 336 336 335 334 334 333 334 333 332 333 330 331 330 329 331 330 330 324 324 324 326 329 327 331 333 333 334 334 335 335 337 337 336 336 336 336 336 336 336 337 337 337 338 339 340 339 340 342 342 342 341 341 340 340 340 340 339 337 338 338 335 336 338 339 338 339 339 339 340 340 339 340 340 340 339 338 337 336
340 342 340 339 339 338 337 337 336 335 334 333 333 333 334 333 333 331 329 330 330 332 328 329 324 324 325 326 321 324 327 330 331 334 335 335 335 335 337 337 337 338 338 337 337 336 337 337 337 337 338 337 339 339 340 341 341 340 341 341 341 340 340 340 335 337 335 338 338 338 338 338 339 340 340 339 339 339 340 340 339 339 338 337 335
340 340 341 340 338 337 336 336 335 335 334 333 333 333 335 334 334 332 332 326 326 329 331 329 328 324 319 320 320 320 319 323 326 329 328 333 335 335 336 336 337 337 336 336 336 336 336 336 336 337 337 337 338 338 338 340 340 340 340 341 341 340 341 340 339 339 337 338 337 338 337 339 339 340 338 338 338 339 340 340 339 339 337 336 334
338 339 340 339 337 336 334 334 335 335 335 333 332 333 335 336 335 333 330 329 327 326 329 329 328 330 324 320 318 318 319 319 322 326 329 333 332 333 336 336 336 336 335 336 336 336 336 336 336 336 336 336 337 337 338 338 339 341 341 341 341 341 341 341 341 340 339 339 339 338 339 339 339 338 337 337 338 339 339 340 339 338 337 336 334
337 337 338 339 336 335 334 333 332 334 335 335 335 335 334 335 335 334 332 331 330 327 325 330 330 330 329 328 326 321 318 319 322 320 325 328 327 330 333 335 335 335 334 335 335 335 336 336 336 336 336 337 337 337 337 336 338 338 339 339 340 341 342 341 341 341 340 339 339 338 339 338 337 336 336 337 338 337 338 339 338 338 337 335 333
336 336 337 337 337 335 335 334 334 333 335 334 334 334 335 334 335 334 333 332 330 326 326 326 328 328 329 329 329 327 326 324 321 317 318 325 326 329 332 333 334 334 334 334 334 334 335 336 336 337 337 337 337 337 335 336 337 337 336 337 337 340 342 342 342 341 340 340 339 339 338 336 335 336 336 338 337 338 338 339 338 337 336 335 333
336 335 336 336 336 334 334 334 334 334 335 333 333 334 335 336 336 335 334 333 329 328 326 327 325 326 329 328 328 328 324 325 324 324 319 319 323 327 329 330 331 331 333 333 334 334 334 335 335 335 336 336 337 337 336 336 336 338 338 339 339 340 342 342 341 341 340 340 339 339 337 335 334 335 336 338 337 336 336 337 338 337 336 334 333
334 335 336 336 336 335 334 333 333 333 335 334 334 334 334 334 334 334 332 333 332 331 329 327 326 326 326 327 328 326 324 326 325 324 323 320 319 321 326 329 332 332 331 332 333 333 334 334 335 336 335 336 337 337 337 335 336 338 337 339 340 341 342 342 341 340 340 340 338 336 335 334 334 333 333 335 337 337 336 336 337 336 335 334 332
333 334 335 336 336 336 335 333 333 333 335 334 333 333 333 334 334 334 334 333 333 333 330 329 327 327 327 328 326 325 325 324 325 322 321 322 321 321 322 325 326 329 330 330 331 333 334 333 333 336 336 337 337 337 337 336 338 338 338 338 340 341 341 340 340 340 340 338 337 336 335 334 335 334 335 336 336 336 336 336 337 336 335 333 333
332 333 334 335 335 336 335 335 334 334 335 334 333 333 333 334 334 334 334 333 332 332 332 330 328 327 326 327 327 327 326 325 324 323 324 320 318 319 319 324 327 327 330 330 331 333 334 333 333 334 335 336 336 336 336 338 336 337 335 337 338 339 339 340 340 340 339 337 336 335 335 334 334 334 334 334 335 336 337 337 337 336 335 334 333
331 332 333 334 334 334 335 335 335 334 334 334 334 334 334 334 333 333 333 334 334 332 332 331 328 328 327 327 328 329 329 327 328 327 325 325 324 323 322 325 326 327 329 330 332 333 333 333 334 334 335 335 336 336 337 338 338 335 338 336 337 338 341 340 339 338 337 336 335 335 334 333 332 331 331 332 332 333 335 337 337 336 334 334 333
324 327 330 333 334 334 334 334 334 335 335 334 334 334 334 334 333 332 332 332 333 333 331 331 330 328 327 328 329 329 329 330 329 328 328 328 326 323 322 325 325 324 328 329 329 333 335 334 334 334 334 334 335 336 337 338 338 335 333 335 336 339 340 339 338 337 337 336 334 333 333 332 332 332 332 333 333 333 334 336 336 335 334 333 333
319 322 326 330 332 333 334 335 335 335 336 335 335 335 334 333 333 333 332 333 334 333 333 333 332 331 330 328 328 329 329 330 330 329 328 327 325 324 323 322 324 325 326 327 331 329 333 336 336 335 335 335 334 336 337 337 338 333 334 338 337 335 337 338 338 337 336 334 334 334 333 332 331 331 331 334 335 334 335 336 336 335 334 334 333
317 320 322 324 328 331 333 334 334 335 336 336 336 335 335 334 333 333 334 334 334 334 333 333 331 331 331 329 328 329 329 330 330 329 330 329 328 327 324 321 321 323 323 326 328 328 330 333 336 335 335 335 335 336 338 338 336 333 334 339 338 331 333 336 337 335 334 334 333 332 332 331 330 330 334 335 336 336 336 336 336 335 335 333 333
316 317 319 322 324 326 329 331 333 334 335 335 335 335 334 333 333 333 333 335 333 333 333 333 332 332 331 330 329 329 329 330 330 330 330 330 330 329 327 326 322 318 321 322 324 325 333 330 334 336 335 335 335 337 337 336 337 333 333 337 337 334 329 332 333 333 332 332 332 332 332 331 331 333 334 335 335 335 336 336 335 335 335 334 334
314 316 317 319 321 322 325 329 332 334 334 335 335 335 334 333 332 332 332 334 334 333 333 333 333 333 332 331 330 330 330 331 330 330 331 331 331 330 329 327 326 322 318 318 321 322 328 332 328 333 336 335 334 337 337 338 335 335 336 335 335 335 326 325 327 330 331 331 331 331 331 332 332 332 333 334 335 335 336 335 336 335 335 334 333
312 314 316 316 318 320 322 325 328 331 333 334 334 335 334 333 333 333 333 334 333 334 334 333 333 332 332 331 331 330 331 330 330 331 331 331 330 329 329 329 328 324 323 319 320 325 326 331 332 332 335 335 335 336 338 337 331 333 334 333 333 332 321 322 323 326 328 329 331 331 330 331 332 332 332 334 335 335 335 335 334 334 333 333 330
311 311 312 314 315 317 319 321 325 328 331 332 334 334 334 333 333 332 333 333 333 332 333 333 333 333 331 330 330 330 330 330 330 331 331 331 331 330 329 329 329 327 325 324 319 323 330 328 331 335 334 335 335 336 337 337 332 332 332 331 331 325 323 324 321 322 321 320 321 322 326 331 332 331 331 333 334 335 335 334 334 333 332 328 322
308 309 310 311 313 314 316 319 321 324 327 330 332 333 333 333 333 333 333 332 332 332 332 333 333 332 332 330 330 330 330 330 330 330 330 331 332 330 330 329 328 328 327 325 322 322 329 331 331 335 335 334 335 335 334 335 331 327 331 330 328 322 328 328 320 319 318 316 315 315 316 322 324 324 324 323 324 326 331 333 333 331 324 320 320
305 307 308 310 312 314 315 316 317 319 324 327 330 332 332 332 332 333 333 332 331 331 333 332 333 332 331 331 330 331 331 330 330 330 331 331 331 331 330 329 328 328 327 325 323 322 325 330 333 333 335 335 333 334 332 332 331 330 326 328 328 328 326 325 323 316 315 313 311 310 309 310 313 314 314 312 311 312 317 321 320 318 320 321 321
305 305 307 309 311 312 313 314 315 317 320 324 327 330 331 331 331 332 332 331 331 332 332 332 332 332 332 331 331 331 331 330 331 330 331 331 331 331 330 329 329 327 329 326 325 324 323 327 330 334 333 335 331 333 330 330 329 327 326 325 326 326 325 324 324 319 313 311 310 309 308 307 308 309 310 311 307 306 308 313 315 318 321 320 319
305 306 306 307 309 310 311 312 314 315 318 321 325 327 329 330 330 331 331 331 331 331 331 331 331 332 331 331 331 331 331 330 331 331 332 331 331 331 330 330 329 328 328 329 326 323 324 324 330 331 331 332 331 331 332 331 330 328 325 324 324 324 324 324 321 317 311 310 309 308 308 307 307 307 308 308 306 307 309 311 314 313 314 314 314
304 305 306 307 308 309 310 311 312 314 316 319 322 325 328 329 329 330 331 331 331 331 331 332 331 330 331 330 331 331 331 330 330 331 331 332 331 331 331 331 330 329 328 328 329 326 326 325 327 330 331 331 332 333 332 331 329 327 326 325 325 324 324 323 320 316 311 310 309 308 307 307 306 306 307 307 306 307 308 310 312 312 312 312 312
303 304 305 306 306 307 308 309 311 312 314 317 320 323 326 328 329 330 331 331 331 331 331 332 333 331 331 331 331 332 331 330 330 330 331 331 331 331 331 331 331 330 329 328 328 328 327 326 326 331 332 332 332 332 331 327 327 327 326 324 324 323 323 322 320 315 311 310 309 308 307 307 307 307 308 308 308 307 309 309 310 311 311 311 311
302 304 304 304 306 305 307 308 310 312 314 316 319 321 324 326 328 329 330 329 330 332 332 332 331 331 331 331 331 331 331 330 330 331 331 331 331 331 330 331 330 330 328 328 328 328 328 327 327 327 330 330 329 330 330 328 325 324 323 323 323 323 320 319 318 315 314 312 311 309 307 307 306 307 309 309 309 308 309 309 310 311 310 310 309
302 302 303 302 304 304 305 307 309 311 313 316 318 320 322 324 326 328 329 330 330 331 332 332 332 332 332 332 331 331 332 332 331 331 331 331 331 330 330 330 331 330 328 327 327 327 327 326 326 328 328 330 329 327 328 329 328 326 322 320 319 321 320 319 316 316 315 313 312 311 310 309 307 308 307 309 310 309 309 309 309 311 311 309 308
302 302 301 302 302 304 305 306 308 311 313 315 317 319 322 324 326 327 329 329 328 330 332 332 332 331 331 332 332 332 332 333 333 333 332 330 330 329 330 330 330 330 328 327 326 326 326 325 326 325 327 327 328 329 328 327 324 323 324 321 318 317 318 318 318 316 314 313 312 311 311 310 309 308 308 308 310 310 310 310 310 311 312 309 308
304 302 302 302 302 302 303 305 307 310 312 315 318 320 322 324 326 327 328 329 327 328 330 332 332 332 332 332 332 332 332 335 335 335 334 333 331 329 330 330 330 329 328 327 325 325 325 326 325 327 326 324 325 325 323 322 321 321 323 323 320 320 319 317 317 317 315 313 313 312 311 312 310 309 309 310 311 311 311 311 311 311 311 310 308
301 302 301 302 302 302 303 304 306 309 312 315 319 317 317 323 325 326 328 328 329 330 330 330 331 332 332 332 333 336 334 336 335 327 322 323 329 332 331 331 330 329 328 326 325 325 325 324 324 324 323 324 325 325 323 324 325 325 323 322 320 320 318 317 317 316 316 315 313 311 312 312 312 311 310 311 313 314 313 313 314 313 311 308 306
300 300 302 301 301 302 303 304 305 308 311 315 313 307 307 309 318 322 325 328 330 330 330 329 328 330 331 332 332 334 334 335 332 321 318 317 318 321 323 328 333 330 328 326 326 326 325 325 326 325 324 324 326 327 325 325 326 324 323 322 321 319 317 315 314 316 317 317 313 314 312 313 313 311 310 312 313 314 314 314 310 310 308 307 306
300 301 300 300 301 301 303 304 305 307 310 314 306 306 305 305 309 320 323 327 328 328 329 329 329 330 330 330 331 332 333 332 332 330 322 318 314 315 315 317 318 321 322 328 327 326 327 326 325 325 325 325 326 327 326 326 325 325 324 323 322 319 317 317 317 317 317 317 315 315 315 312 313 313 312 313 314 314 315 310 307 308 306 306 306
300 299 299 300 300 301 302 303 304 307 310 309 305 305 305 303 303 311 321 326 328 328 328 329 329 330 330 329 329 330 332 336 335 333 329 326 317 315 316 317 318 316 309 311 317 331 330 328 327 325 326 327 327 327 328 328 327 324 323 322 322 321 321 319 319 318 314 318 317 316 315 313 313 312 313 314 315 315 313 308 307 308 306 305 305
299 299 300 300 300 301 302 303 305 307 309 310 305 305 304 303 302 304 317 322 326 329 329 329 328 330 329 329 328 328 330 332 332 332 331 330 326 323 325 327 328 329 315 310 313 317 326 330 329 327 329 330 328 329 330 329 327 325 323 322 323 322 321 320 323 321 317 318 319 318 315 312 313 313 313 314 316 314 314 309 305 306 305 304 304
299 298 299 299 299 301 302 303 305 306 309 308 304 303 302 302 301 303 314 319 324 328 329 329 330 330 328 329 329 329 329 331 332 332 331 329 327 325 326 327 327 329 327 325 328 328 330 332 331 330 331 332 332 331 331 330 330 329 326 325 324 324 324 323 321 319 317 319 322 321 319 313 312 313 313 313 315 314 314 306 304 305 305 304 304
300 300 300 300 300 301 302 303 304 306 309 304 303 302 302 301 300 309 313 316 320 325 328 329 329 330 328 329 330 330 330 330 328 316 325 330 327 326 325 326 327 329 328 330 319 320 332 332 332 332 332 332 323 332 331 331 331 331 329 327 326 324 322 320 319 318 317 318 320 321 316 311 312 314 313 313 314 312 312 313 305 306 306 304 303
298 298 299 299 301 301 302 303 305 307 309 307 302 301 301 300 301 310 313 316 319 324 328 329 329 327 327 328 329 330 330 330 321 308 310 321 327 326 326 326 327 328 327 329 313 310 311 311 311 311 312 311 310 311 312 314 325 327 327 324 322 323 322 319 319 317 318 317 318 319 319 313 311 313 311 312 312 312 312 312 312 306 305 304 303
298 298 299 300 301 302 303 304 306 308 309 310 303 302 301 300 305 311 313 316 318 322 326 327 327 327 328 332 332 330 329 330 312 306 306 321 327 326 326 325 325 325 326 328 324 317 306 305 304 304 305 306 306 307 309 309 310 320 327 323 324 323 322 322 318 316 316 316 317 319 318 315 312 313 310 310 310 311 312 313 312 309 304 304 302
299 300 301 301 301 302 304 305 311 310 309 310 304 301 301 300 304 311 314 316 318 322 325 326 326 327 327 331 332 328 330 325 306 305 305 322 328 327 327 326 324 324 325 324 323 319 319 319 318 317 314 313 320 323 321 308 311 322 329 329 326 324 323 322 321 318 316 317 319 320 316 312 311 312 311 309 309 311 312 313 311 311 312 312 309
Wind_Speed
5 4 3 4 4 4 4 4 4 4 4 3 3 4 4 3 3 3 3 3 4 4 4 4 4 3 4 5 4 4 4 4 4 4 3 3 3 4 10 12 11 12 12 12 12 12 11 11 10 11 9 9 10 9 10 9 9 9 8 7 8 8 7 5 5 5 6 5 5 4 5 4 5 5 5 6 6 6 6 7 8 8 8 6 7
6 4 4 4 4 4 4 4 4 3 3 4 3 3 3 3 2 3 3 3 4 4 4 5 5 4 4 4 5 4 5 5 4 4 4 3 3 4 9 12 13 12 12 12 12 12 12 12 11 11 10 10 10 9 10 9 7 8 10 8 8 8 7 5 5 5 6 5 4 5 5 5 5 6 6 6 6 6 7 7 8 6 9 7 6
6 6 5 4 4 4 4 3 3 3 3 3 3 3 3 4 3 3 3 3 4 3 3 5 5 5 4 4 4 5 5 5 5 4 3 4 3 4 5 12 12 12 12 12 12 13 13 12 12 11 11 10 10 10 10 9 8 8 6 5 7 7 7 6 6 6 6 5 5 5 6 6 6 6 6 6 6 7 7 8 9 8 3 7 7
7 6 6 5 4 5 4 4 5 4 4 4 4 3 4 3 3 3 3 3 4 4 3 4 5 5 5 5 4 5 6 5 5 4 4 4 4 4 4 6 12 12 12 12 11 13 14 14 13 12 11 10 11 11 10 10 8 8 7 7 8 7 7 7 6 6 6 6 6 6 7 8 8 7 8 8 7 7 7 10 10 4 3 5 6
7 8 8 6 6 5 5 6 5 4 4 5 4 3 3 3 3 3 3 5 3 4 3 4 5 6 5 6 4 5 5 5 5 4 5 4 4 4 4 5 6 11 13 13 12 11 13 14 14 12 11 11 11 11 10 10 9 9 9 9 8 7 7 7 7 6 6 7 7 8 9 9 8 8 8 8 7 7 8 6 1 4 6 5 4
6 7 7 6 7 7 6 6 5 4 4 4 4 4 4 4 5 4 5 4 5 4 3 5 5 5 6 6 5 6 5 5 5 5 5 5 4 4 4 4 4 5 7 13 13 11 10 11 12 12 11 11 11 11 11 9 9 9 9 9 9 7 6 8 8 6 7 7 8 9 9 9 9 9 9 8 6 6 2 4 1 2 5 5 4
7 6 6 6 6 6 6 6 4 4 4 4 4 4 4 6 5 6 6 5 5 6 4 5 5 6 6 5 6 6 5 6 5 5 5 4 4 4 4 4 4 4 5 5 9 11 10 10 12 11 11 12 11 10 10 9 8 9 9 7 10 7 8 8 7 7 7 8 9 9 9 9 9 9 7 9 7 5 3 4 6 5 4 6 5
8 8 6 6 7 6 7 5 5 5 4 4 4 4 4 5 6 6 7 7 5 6 3 5 5 6 7 6 6 5 6 5 5 4 3 3 4 4 4 4 5 5 5 4 3 5 11 11 11 11 10 10 10 10 11 10 9 8 8 8 10 9 9 9 7 7 8 9 10 10 9 8 8 6 5 3 5 6 6 6 6 4 4 3 3
8 9 7 7 6 7 6 6 5 6 5 5 4 4 4 5 5 6 7 7 4 5 5 5 6 6 7 7 7 5 6 5 4 3 3 4 5 4 4 5 5 6 4 4 4 4 10 13 11 11 9 9 8 10 11 10 10 9 9 9 9 10 10 7 7 8 9 10 10 10 8 8 7 7 6 9 4 4 6 6 6 4 2 5 5
11 9 8 8 7 7 5 5 6 6 7 7 7 6 5 5 6 5 6 4 2 4 8 9 6 6 7 8 7 5 6 4 3 3 4 4 4 5 5 4 4 5 4 4 5 5 5 9 12 12 11 9 9 10 11 11 10 9 8 8 10 10 9 8 7 9 10 11 11 9 8 7 6 7 5 4 6 5 5 4 2 1 3 6 7
10 10 8 9 8 7 7 6 6 6 7 7 6 6 7 6 6 6 1 2 5 7 7 6 8 6 6 9 6 5 4 3 2 3 4 3 4 4 3 4 4 4 4 5 4 4 5 4 6 7 8 12 9 9 10 11 10 10 9 9 10 10 9 8 6 9 11 10 9 8 7 7 6 7 5 4 6 5 2 1 2 3 6 7 8
9 9 8 9 9 9 9 8 7 7 6 7 7 8 9 8 8 6 4 5 6 6 5 5 6 8 7 5 3 3 3 2 3 3 2 3 3 3 4 3 3 4 5 5 4 5 5 5 5 5 5 8 11 10 9 9 8 9 10 10 10 10 9 8 9 10 9 8 7 7 7 6 8 8 5 4 2 2 1 2 2 4 7 8 10
9 9 9 9 8 7 7 7 8 8 8 9 7 8 7 7 7 7 8 7 7 6 7 3 3 5 5 4 2 1 1 1 3 3 3 2 2 3 3 3 3 4 4 3 4 5 5 5 5 4 4 4 6 10 9 9 8 8 11 11 10 11 11 11 9 6 4 3 5 8 6 6 5 5 4 1 2 2 2 2 3 5 8 10 13
8 8 8 8 7 7 7 8 8 9 9 8 7 7 8 7 6 6 6 7 6 7 5 4 3 5 6 4 2 1 1 1 3 3 3 2 3 4 3 3 4 4 3 4 4 5 5 5 4 4 4 4 4 4 5 7 8 9 10 11 11 11 12 9 6 5 1 3 7 8 6 5 6 3 1 3 2 2 2 2 3 5 9 11 15
7 8 7 7 8 7 7 6 7 8 8 8 9 9 9 10 9 8 7 6 7 5 8 8 5 1 5 2 2 3 2 1 1 1 2 3 3 4 3 3 4 4 3 4 4 5 4 4 5 4 5 6 5 4 4 4 6 8 9 10 10 12 10 6 0 10 3 7 5 6 4 4 3 2 3 3 2 2 2 3 4 8 11 14 15
7 8 8 6 6 6 6 5 7 7 7 8 9 10 9 9 8 10 8 7 6 4 7 8 6 6 4 3 2 3 1 4 4 3 1 1 3 3 2 3 3 2 4 5 6 6 6 5 5 5 4 5 4 4 4 4 5 7 8 9 10 11 11 9 10 10 8 10 5 5 3 2 3 3 3 3 3 2 2 4 6 11 13 15 14
8 8 8 8 6 6 6 6 6 7 7 8 8 9 9 9 9 9 11 9 7 4 5 9 8 7 7 3 3 1 3 2 2 4 2 1 1 2 2 3 3 3 4 5 3 4 5 5 6 5 4 5 4 4 4 4 5 6 7 8 10 10 11 10 9 9 8 5 3 2 3 3 3 2 3 3 4 4 3 5 8 13 15 14 13
8 8 8 8 6 6 7 7 8 7 7 8 8 7 9 9 10 9 9 9 7 6 6 8 7 6 7 4 5 3 3 2 3 3 2 1 2 2 2 2 2 3 4 4 4 4 4 5 5 6 5 4 4 4 4 5 5 4 4 5 9 11 11 11 10 8 7 3 3 4 4 2 2 3 4 4 4 4 4 6 9 13 14 13 13
8 7 8 8 8 7 7 8 8 8 8 8 9 9 8 8 7 8 8 8 8 8 8 5 5 4 5 6 1 1 3 5 4 3 2 1 2 2 1 2 3 3 4 4 4 4 5 5 6 6 5 5 5 5 5 6 6 5 5 5 8 12 11 10 9 8 7 4 4 5 4 3 3 3 4 5 5 5 4 6 9 12 13 13 13
6 7 7 7 7 7 7 8 8 9 9 9 10 9 8 7 8 9 7 8 10 9 8 7 9 6 8 8 4 4 4 1 3 6 3 2 2 1 1 2 2 3 4 4 5 5 6 5 6 6 5 5 5 5 5 5 5 4 5 10 12 13 10 9 8 8 6 5 6 5 4 4 3 3 4 5 5 4 3 5 11 11 13 13 13
6 7 7 7 8 8 8 8 8 8 9 8 9 9 10 9 9 8 9 9 9 9 8 8 9 10 7 5 4 3 2 1 3 2 5 5 5 3 3 1 2 3 4 4 4 4 6 5 5 6 5 4 5 5 4 5 4 4 4 6 8 10 9 8 8 7 6 7 7 6 5 4 4 3 3 3 5 5 3 3 11 12 13 13 13
6 6 7 7 7 8 8 9 10 9 9 9 9 10 9 9 10 9 8 10 8 9 10 8 8 8 9 7 7 4 3 2 2 2 2 2 6 4 4 4 4 1 4 5 5 5 5 4 4 5 5 4 4 4 4 5 4 4 4 7 8 9 7 8 8 8 9 8 7 7 5 4 4 4 3 2 3 6 5 5 11 13 13 13 14
6 6 7 8 8 9 8 9 9 10 9 9 9 9 9 9 9 9 9 10 8 8 9 9 8 8 10 9 10 10 9 7 7 5 5 3 1 4 4 4 4 2 1 2 3 4 4 4 4 4 3 4 4 4 4 5 6 5 6 7 7 6 7 9 9 10 9 8 7 6 5 4 4 3 3 2 3 5 6 7 11 14 13 14 14
4 5 6 7 8 8 9 10 9 9 9 9 9 9 9 9 8 8 9 9 9 8 8 9 10 8 10 10 10 9 8 9 7 7 7 6 7 6 4 2 2 4 1 2 3 4 4 4 4 4 4 4 4 4 5 5 5 7 6 8 12 12 11 12 12 11 10 9 7 6 5 4 3 3 3 3 2 3 5 7 12 13 15 15 15
7 7 5 6 6 8 8 8 8 8 8 8 9 9 9 9 9 10 9 10 10 10 9 10 10 10 10 9 9 9 9 8 7 7 7 6 6 6 1 2 2 2 2 1 2 3 4 4 4 4 4 4 4 4 4 5 4 6 6 7 11 11 12 13 12 11 10 9 8 7 6 5 4 3 3 2 4 5 5 7 12 14 14 14 15
6 7 7 8 7 7 7 8 8 9 9 10 10 10 10 9 9 10 10 10 9 11 10 11 10 11 9 9 9 9 9 8 8 7 7 7 5 7 4 2 2 3 1 2 2 2 4 4 5 4 4 4 4 4 5 4 4 7 8 7 9 11 12 12 12 11 11 10 9 8 7 6 4 3 2 2 6 7 5 8 13 14 14 15 15
6 7 8 8 9 8 7 7 8 9 9 9 9 9 9 9 9 10 9 9 10 10 10 11 11 12 11 10 9 9 9 8 8 8 8 8 8 7 6 5 3 1 2 3 3 6 4 2 5 5 5 5 5 5 6 6 6 9 9 7 8 11 11 11 12 12 11 10 10 9 8 6 5 5 4 5 7 8 8 9 12 14 14 14 15
6 7 8 8 9 9 9 8 8 8 9 10 10 9 9 9 9 9 10 7 9 11 10 11 12 12 12 10 9 10 8 8 8 8 7 8 7 7 8 7 8 6 3 4 4 5 5 5 4 5 6 5 5 6 6 7 6 11 10 6 6 7 10 10 11 11 12 11 11 10 9 8 8 7 6 6 6 6 7 9 12 14 15 15 16
6 6 7 8 9 9 10 9 8 7 8 9 10 10 10 10 10 10 10 9 10 11 10 10 11 11 10 13 11 9 9 9 8 8 8 7 6 7 8 8 8 7 6 6 7 6 6 8 5 5 6 6 5 6 7 7 9 9 7 6 6 5 9 10 10 10 10 11 10 10 10 9 9 8 7 7 6 6 7 10 14 15 15 15 16
5 6 6 7 9 10 9 10 9 9 8 9 10 10 11 10 11 11 11 10 10 10 11 11 11 10 10 10 11 10 8 9 9 9 8 8 7 7 7 7 7 8 7 6 6 7 5 7 6 4 6 7 6 7 7 7 11 9 7 6 6 6 10 10 10 9 9 8 8 9 10 10 9 8 7 7 8 7 9 11 13 14 14 15 15
5 6 6 6 7 8 9 10 9 10 9 9 9 9 10 10 10 10 10 11 10 10 10 11 10 10 11 12 11 10 9 11 10 8 8 7 7 7 6 7 8 8 8 6 5 4 5 7 7 6 5 8 7 7 7 8 9 10 8 6 6 9 11 8 10 10 10 10 9 9 8 9 8 7 7 8 10 9 10 12 14 14 14 14 14
6 6 6 7 7 8 8 9 11 11 10 10 9 10 9 11 12 10 10 11 11 12 11 11 10 10 11 11 12 10 10 9 10 9 10 9 8 7 7 8 8 8 7 7 8 5 6 6 8 7 9 8 9 9 9 8 8 11 6 6 7 9 6 5 9 10 11 11 11 11 11 10 9 9 9 9 9 10 8 10 12 12 13 14 14
8 7 6 7 7 7 8 9 11 11 11 11 10 9 10 11 12 12 12 11 12 12 12 12 12 12 12 11 11 10 10 11 9 9 10 11 9 9 8 8 8 7 8 8 8 5 1 1 4 6 8 9 7 9 8 9 8 7 7 5 6 5 4 4 6 9 10 11 10 10 11 10 10 9 9 9 8 7 8 7 11 13 14 13 12
8 9 9 7 7 8 8 9 10 11 12 13 12 10 10 11 13 11 12 13 13 14 12 13 13 12 11 12 11 11 11 12 10 10 10 9 11 10 10 10 9 9 8 8 7 7 5 5 6 6 8 10 6 8 8 9 10 7 7 6 3 4 5 6 6 5 10 10 10 10 11 10 9 8 8 9 8 5 6 6 8 12 13 13 12
8 8 9 8 8 8 8 9 10 11 12 12 12 11 11 12 13 12 12 13 15 14 12 12 13 13 12 12 13 11 10 11 12 11 10 10 11 11 11 9 10 9 8 8 7 7 7 7 8 9 9 9 7 8 10 9 9 9 9 9 7 5 5 6 6 4 9 9 9 9 10 9 9 8 8 9 8 4 4 4 4 9 13 13 12
8 8 8 9 8 8 9 9 10 10 12 12 12 12 12 12 12 13 13 14 14 14 14 13 12 12 13 13 13 12 12 12 12 11 10 10 10 11 11 10 10 11 9 7 8 7 6 7 8 9 9 9 7 8 8 10 8 9 8 9 7 6 6 5 6 5 6 9 9 9 9 8 8 8 8 8 7 4 3 3 2 7 10 12 12
8 8 9 8 8 8 8 10 11 11 12 13 13 13 13 11 12 13 14 14 14 14 15 14 13 13 14 14 13 13 13 13 12 11 11 14 12 11 11 9 9 9 9 9 8 7 7 7 8 7 6 7 8 9 9 10 7 8 9 9 8 7 6 5 4 5 8 9 9 9 8 8 8 8 7 7 7 4 1 2 1 7 9 11 12
8 8 9 9 8 10 10 10 11 12 12 13 14 14 14 14 12 12 13 12 14 15 15 14 13 12 13 14 14 14 14 15 13 13 13 15 13 12 11 10 9 9 10 11 9 8 8 9 10 9 7 7 5 7 11 11 10 8 9 7 7 6 7 6 4 4 3 3 3 4 6 6 7 6 4 5 6 4 1 1 2 5 9 10 11
9 9 9 10 9 9 10 11 12 12 13 13 13 13 14 14 14 13 13 14 16 15 14 14 14 14 14 13 14 15 15 14 14 13 12 13 11 12 12 11 10 11 10 10 10 11 9 9 10 9 9 7 9 7 10 10 9 11 11 9 7 6 7 8 6 4 3 3 4 5 4 4 5 4 3 3 4 5 1 1 0 2 7 9 10
9 10 10 10 10 9 10 11 12 12 13 13 13 14 14 14 13 13 12 13 14 15 15 15 15 15 15 14 15 16 16 15 14 13 13 12 11 11 10 11 12 12 11 10 10 10 11 10 10 11 9 7 7 7 8 11 9 7 9 10 10 10 9 7 6 6 4 4 3 3 4 6 5 4 3 3 2 3 3 2 2 1 4 8 9
8 9 10 10 11 12 11 11 12 12 12 12 11 12 12 13 13 14 13 14 15 17 16 16 16 15 15 15 15 15 17 19 19 15 14 14 12 12 12 13 13 12 11 10 10 11 10 10 10 9 9 7 6 9 11 10 11 12 11 9 7 8 8 6 5 4 5 5 4 4 3 3 3 3 2 2 2 3 4 3 3 2 3 8 9
10 9 10 11 11 12 12 12 12 12 12 11 15 20 16 13 12 11 12 14 16 16 16 15 15 16 16 14 14 23 23 24 21 20 20 19 18 14 13 13 13 12 11 12 11 12 11 11 11 14 13 10 9 11 12 12 10 8 11 10 9 9 7 6 3 4 6 5 5 4 4 3 3 3 3 3 3 3 3 4 6 4 4 7 9
10 10 10 12 12 12 11 12 14 13 12 12 19 18 18 19 15 12 13 14 15 16 15 15 15 16 15 15 14 18 19 19 19 20 19 20 18 17 17 18 16 15 13 12 11 12 12 11 11 11 11 12 11 11 12 10 10 11 12 11 9 9 10 10 8 3 6 8 6 4 4 4 4 4 3 3 4 3 4 3 6 6 5 7 9
10 10 11 12 13 13 12 12 14 14 14 17 19 19 20 20 16 13 12 13 14 15 15 16 15 15 13 13 13 12 14 16 16 16 17 18 19 19 18 18 18 19 17 16 14 12 12 12 11 12 12 13 11 11 11 10 10 10 11 11 11 11 11 10 9 6 5 10 5 4 3 4 4 4 3 4 4 4 4 4 7 7 6 7 9
10 11 12 12 13 13 13 13 15 15 15 18 19 20 20 19 17 14 12 13 14 16 16 16 16 15 13 13 11 11 12 23 17 13 13 15 18 19 16 18 18 19 17 16 16 15 12 10 11 12 14 11 13 12 12 12 11 11 12 12 10 8 9 10 10 6 5 10 6 4 4 4 5 4 4 4 4 5 4 4 6 8 7 7 8
11 12 13 14 14 15 14 14 14 16 16 18 19 20 19 18 16 14 12 14 16 15 15 15 15 15 14 13 13 12 11 13 14 14 13 14 11 11 10 11 12 17 16 17 17 16 16 13 12 14 11 11 12 13 14 14 15 13 13 14 13 11 12 13 10 5 5 11 9 6 2 4 6 5 4 5 5 5 4 4 6 7 7 7 8
12 12 13 14 13 14 14 13 14 16 16 21 19 19 19 18 17 13 10 12 13 14 14 15 15 14 14 13 14 13 13 13 13 15 15 14 13 13 13 11 12 13 14 15 15 14 13 12 13 14 13 13 13 14 13 14 15 13 13 15 16 12 9 5 4 3 5 7 4 6 6 4 5 4 4 5 5 4 4 4 5 8 8 8 8
12 12 13 13 15 16 15 14 15 17 17 20 19 19 19 18 16 10 11 13 14 15 14 15 15 12 13 14 13 14 14 14 16 18 17 13 13 13 12 13 12 12 13 14 15 13 13 12 11 10 10 12 11 12 13 13 12 9 7 6 7 8 9 8 7 5 4 6 6 6 3 3 6 4 4 4 4 4 3 3 4 7 9 9 9
13 13 15 13 13 16 16 15 16 16 17 18 19 19 19 19 13 9 10 11 13 14 14 15 13 11 13 14 13 12 14 14 16 19 18 17 13 14 13 10 10 10 10 10 12 15 13 11 10 12 13 15 15 17 18 19 14 12 11 11 13 13 12 11 8 5 6 6 6 5 3 4 5 4 5 4 4 3 3 3 4 6 9 9 9
15 15 14 12 14 15 17 17 16 17 16 16 18 18 19 18 15 11 10 10 13 14 14 12 11 12 14 21 16 13 13 14 18 20 19 18 13 14 13 13 10 10 9 9 7 6 10 12 12 14 15 15 16 17 18 17 17 15 12 14 13 11 11 9 9 7 3 5 6 6 5 3 7 5 6 3 2 1 3 4 4 5 8 7 8
15 13 13 14 16 15 16 17 24 21 17 16 19 20 20 19 15 10 10 10 12 13 13 12 12 12 12 16 22 17 14 14 19 20 21 19 14 13 14 11 10 11 9 9 10 9 7 7 5 7 6 10 12 12 13 18 19 17 14 11 10 11 9 8 7 6 3 4 6 9 6 5 8 6 6 5 2 3 4 4 5 5 6 6 5
Wind_Direction
228 229 217 217 207 197 190 192 178 168 147 157 173 179 191 198 212 248 248 275 276 285 288 287 282 272 268 289 289 289 284 272 259 255 229 200 206 210 206 200 195 201 203 201 201 201 191 197 197 198 197 200 199 208 217 219 212 210 209 215 225 237 242 251 260 263 261 263 268 279 299 308 313 319 312 307 312 322 317 315 320 351 39 6 338
224 231 221 227 217 208 196 196 193 175 160 172 170 181 190 171 210 237 253 252 273 276 288 292 288 280 268 271 279 283 277 273 258 238 222 203 202 217 206 198 197 201 206 207 203 201 193 198 203 200 204 203 203 207 216 228 229 225 194 214 222 231 241 257 265 260 265 268 271 286 291 296 296 293 296 306 310 309 310 313 326 16 30 335 342
210 212 222 226 221 216 217 189 194 191 179 182 170 181 171 191 192 222 239 257 263 268 273 282 287 289 283 277 277 278 271 260 257 234 219 207 202 204 215 198 200 202 206 210 207 205 199 203 202 206 207 210 208 207 209 215 224 242 208 209 235 237 236 256 264 258 264 270 271 275 278 281 279 287 302 308 307 307 308 319 3 59 7 328 326
207 207 208 209 212 215 217 204 212 186 184 184 193 182 185 187 207 204 220 240 268 264 258 264 280 284 289 281 273 266 267 262 250 237 222 207 199 201 207 199 199 201 207 211 213 210 207 210 209 210 214 210 207 213 214 216 220 230 214 215 232 237 235 246 257 260 264 266 267 270 273 275 284 292 299 301 300 308 327 358 51 347 278 324 340
210 211 210 205 205 205 212 219 214 191 179 183 195 192 180 185 206 211 241 259 251 264 257 251 271 280 284 280 271 262 259 260 250 229 225 210 201 196 194 202 189 200 205 211 215 221 217 215 219 221 212 212 210 217 224 213 219 224 225 209 218 232 233 239 250 258 260 265 268 269 271 274 281 287 287 294 308 319 8 353 358 235 308 333 332
207 211 208 204 204 206 209 219 211 195 174 173 199 202 224 228 241 225 234 239 251 253 273 279 270 274 272 276 273 264 266 261 250 236 213 209 194 193 193 196 179 192 205 213 215 217 219 218 218 224 212 215 214 219 232 236 223 229 235 200 210 224 233 237 245 253 260 265 268 269 272 276 278 282 295 303 329 341 55 311 327 292 318 323 276
210 208 209 207 208 210 211 214 179 184 192 192 197 203 214 236 243 246 250 246 250 262 262 269 284 285 280 279 268 270 259 255 251 240 207 194 176 192 183 188 186 185 199 208 215 214 216 219 219 221 212 217 221 219 229 232 234 243 253 213 199 225 239 237 240 249 259 264 267 271 274 277 290 307 316 342 329 336 340 313 296 272 289 285 300
216 213 212 214 214 214 216 197 188 182 191 187 189 207 222 235 240 241 255 254 249 266 259 266 269 279 281 278 270 262 263 254 242 227 192 172 179 179 183 191 188 189 196 198 203 211 213 216 217 218 217 221 222 222 225 227 229 237 242 237 215 228 237 232 229 242 252 260 265 272 276 289 305 316 327 328 300 325 309 302 267 270 295 318 119
210 210 213 216 219 221 216 196 180 185 183 181 196 207 215 226 238 234 236 256 266 318 305 270 279 277 284 283 272 264 255 249 233 206 165 185 178 178 180 195 196 194 192 184 197 209 216 214 213 216 219 218 225 227 230 240 239 226 227 244 238 232 237 236 210 234 246 254 264 269 286 302 326 310 338 332 309 273 297 282 271 285 319 111 118
213 209 211 215 216 221 215 196 189 187 192 182 203 196 201 203 242 246 230 229 111 247 276 291 283 284 290 287 282 268 257 243 224 199 183 189 186 184 189 189 195 194 185 190 200 206 217 216 211 215 218 218 218 225 233 242 249 248 236 237 237 239 244 235 204 226 241 250 259 274 292 303 296 309 326 300 321 313 303 308 356 92 126 126 125
215 212 210 212 212 212 209 197 193 202 198 187 199 204 210 199 216 245 198 107 191 226 229 256 295 292 286 282 277 261 251 226 202 194 194 199 189 186 168 197 193 187 191 195 202 205 212 217 211 212 216 217 219 222 229 238 244 250 245 234 237 242 247 245 208 221 238 249 261 272 284 302 315 316 321 318 300 298 330 20 108 133 134 132 130
221 218 218 216 213 209 206 192 185 187 195 203 207 213 210 193 187 205 193 198 192 237 236 231 249 278 282 280 270 273 230 204 188 200 174 193 191 172 193 185 186 192 200 199 197 207 211 211 213 211 205 218 219 218 223 229 236 245 244 238 241 246 249 243 235 228 239 261 278 274 288 305 327 308 321 316 345 31 46 122 136 142 136 130 127
225 219 222 225 223 219 209 198 188 186 187 205 206 221 214 201 185 179 202 220 209 202 241 245 288 284 268 267 287 348 96 175 207 191 203 175 172 197 188 176 181 197 203 191 198 212 213 208 213 213 209 208 222 222 219 221 228 233 237 239 241 246 246 241 239 251 255 296 300 302 300 303 272 303 314 24 60 71 64 129 148 139 133 129 128
232 225 224 221 225 222 220 215 203 201 193 194 187 215 222 216 196 172 187 203 221 170 164 118 244 237 246 243 299 342 56 100 175 214 196 196 184 205 193 183 188 201 189 186 199 207 213 207 208 212 208 206 213 217 220 221 222 222 228 233 238 246 251 256 282 298 355 317 284 277 295 314 315 303 85 101 84 62 64 119 148 142 129 128 126
237 239 235 228 226 226 228 226 215 210 208 197 198 207 213 209 196 186 186 201 222 165 163 174 219 231 276 213 266 193 301 6 327 175 200 193 184 212 189 192 208 199 188 186 201 213 208 199 201 204 205 214 211 207 213 214 210 216 221 222 231 243 250 250 355 264 272 243 249 286 310 301 291 142 124 103 89 69 87 129 137 134 127 127 131
248 246 246 238 231 230 232 226 219 215 218 215 211 210 203 200 192 192 186 200 202 179 159 183 180 138 248 239 210 141 160 249 226 279 312 220 188 214 191 204 212 193 194 213 218 220 218 210 206 200 198 206 208 201 208 210 202 211 220 221 226 234 246 249 211 237 223 240 223 259 288 242 167 139 116 105 104 101 98 131 134 127 129 134 139
246 249 246 243 227 222 223 229 230 219 218 220 217 217 211 198 191 188 187 195 202 158 151 180 200 201 187 157 92 174 207 241 122 262 5 284 293 250 207 190 192 197 208 226 226 223 215 214 219 207 197 201 206 203 204 202 209 218 227 230 227 230 238 244 250 255 255 229 215 248 214 173 153 127 108 103 104 99 99 131 131 131 138 142 138
238 233 238 246 228 218 221 224 225 228 230 232 224 216 212 204 194 194 192 192 191 185 178 175 188 219 257 232 169 167 176 212 133 245 316 228 293 272 213 173 173 195 210 223 226 223 217 221 219 221 209 199 205 203 199 188 199 202 209 234 244 231 228 234 242 247 249 227 167 215 185 166 123 129 120 104 98 84 101 127 133 137 141 141 136
254 246 237 227 225 219 219 222 225 226 227 231 233 223 214 210 197 194 199 189 183 204 204 179 157 198 241 280 4 11 136 135 193 71 306 304 256 243 215 171 174 187 214 223 224 223 225 225 228 228 221 213 211 210 193 182 196 206 197 199 238 244 225 226 232 235 236 188 202 196 181 163 157 143 133 116 95 85 81 125 134 138 140 139 135
263 256 251 245 234 222 221 226 226 224 225 227 232 232 225 218 205 199 193 193 183 197 201 174 183 196 201 215 203 177 186 130 150 170 163 181 269 316 217 218 185 210 214 217 218 220 226 226 233 235 227 213 213 209 186 177 188 197 202 205 219 227 217 215 220 220 208 183 179 174 161 161 158 140 137 128 119 103 92 133 139 139 141 139 138
272 269 262 250 251 239 225 222 226 229 229 232 234 233 229 222 213 206 204 203 198 194 190 190 185 205 166 200 191 202 181 117 117 93 175 204 251 225 249 286 197 225 220 222 222 221 220 219 228 236 226 212 210 210 180 154 195 190 199 203 213 217 208 208 205 197 174 169 155 152 152 148 137 116 106 130 141 130 120 132 144 141 144 142 139
278 269 268 262 258 250 236 228 227 227 231 231 231 230 231 227 218 214 212 211 201 198 196 186 188 195 189 171 185 187 192 180 171 121 43 185 233 211 204 192 230 212 212 220 220 219 220 219 225 235 226 213 210 210 169 164 190 191 195 205 206 200 197 192 179 170 157 148 153 152 148 143 131 118 101 94 155 141 137 130 150 146 148 145 140
281 274 263 260 251 248 247 241 231 233 230 229 226 223 224 227 223 217 218 216 207 203 204 195 184 194 198 193 196 186 188 183 191 192 173 180 195 257 246 219 218 232 154 226 222 217 218 213 216 223 218 203 212 207 180 178 194 188 185 183 187 199 180 173 160 149 145 147 149 147 143 130 126 130 119 101 115 130 136 143 156 150 150 146 140
296 276 270 263 256 247 243 244 242 235 229 224 225 221 222 223 222 216 217 217 211 205 206 202 190 191 203 202 205 201 199 197 188 178 182 198 196 220 216 165 231 232 241 322 239 229 215 216 214 218 214 206 210 203 176 186 192 176 182 169 166 188 169 154 145 144 143 142 138 133 127 123 138 150 155 162 176 150 144 150 154 157 151 145 142
336 327 316 298 280 265 250 239 239 238 234 231 230 226 224 222 219 217 213 213 215 211 208 207 198 193 200 208 205 200 206 201 176 181 195 181 181 211 129 170 188 207 214 238 236 235 227 216 215 212 206 207 200 186 173 193 181 162 147 153 166 160 150 144 145 142 139 137 131 122 119 124 121 127 133 155 187 178 173 162 157 153 153 147 143
319 319 316 310 298 287 280 261 244 237 232 232 230 226 224 223 222 218 215 215 213 214 214 211 208 206 197 198 205 203 208 193 186 176 172 155 170 188 161 164 185 210 142 233 214 238 231 216 206 207 196 195 192 181 173 181 172 153 154 151 147 142 141 146 142 141 138 133 124 120 119 116 123 124 96 83 178 171 143 159 154 154 153 152 143
313 310 312 307 303 301 289 278 271 258 248 242 235 230 225 223 224 223 220 213 214 214 217 211 212 210 205 201 200 206 205 194 181 190 169 182 176 166 156 177 179 157 204 213 225 228 237 240 204 197 185 181 180 182 175 171 159 152 144 144 140 135 140 144 144 141 137 128 126 125 119 118 118 100 64 85 144 139 132 149 155 155 154 149 138
300 305 305 308 309 307 303 289 277 269 259 248 238 229 224 225 226 224 224 213 215 215 216 213 214 208 211 206 201 207 200 194 192 190 184 186 183 162 174 177 187 211 200 217 220 242 224 231 214 195 178 175 177 182 166 149 151 146 138 138 134 136 142 143 143 141 134 132 129 125 119 108 97 83 73 101 127 141 143 152 160 158 151 144 138
290 298 304 310 307 304 302 299 289 271 263 258 249 236 227 224 225 223 223 215 216 217 212 213 214 209 209 209 209 203 198 198 196 194 191 187 178 173 179 185 184 187 185 215 223 224 220 207 218 199 173 161 173 179 164 158 152 149 141 132 134 132 144 142 142 139 139 135 131 126 118 104 92 86 80 87 104 144 153 158 159 156 149 143 138
287 293 300 301 301 305 303 300 296 284 271 263 257 246 234 226 224 223 220 216 217 218 217 212 212 210 209 206 211 211 195 196 201 193 189 189 179 176 179 188 177 189 175 191 218 204 212 196 211 186 164 159 172 171 164 155 150 144 141 135 137 141 146 145 140 136 128 126 122 120 115 107 100 90 84 83 85 110 150 155 151 147 144 141 131
285 291 291 291 294 298 301 300 299 293 285 274 261 251 239 234 225 223 222 218 218 217 214 213 212 211 211 210 207 211 197 200 198 193 191 187 187 176 180 179 186 191 172 172 202 236 189 204 205 194 155 158 170 167 157 151 149 143 144 135 141 149 146 139 131 123 112 103 95 82 82 96 91 84 79 62 67 91 134 146 149 147 141 127 127
283 281 287 288 291 295 295 297 297 295 288 282 270 256 242 235 232 227 220 216 220 217 212 209 212 211 211 208 210 208 202 198 198 194 191 195 188 181 175 179 189 189 170 174 198 208 198 201 199 180 159 161 173 161 156 147 142 139 136 137 142 144 133 119 124 121 113 103 92 83 73 71 71 67 57 48 47 59 89 139 139 131 125 131 134
299 293 284 284 286 287 293 294 295 294 291 286 278 265 247 237 230 227 230 218 217 219 212 205 206 208 209 208 207 205 197 201 200 192 192 192 192 191 180 179 186 182 177 179 187 194 232 218 172 179 157 155 168 162 151 149 147 139 128 124 142 137 124 115 119 106 106 98 89 87 85 79 74 72 68 61 59 36 38 73 124 129 133 135 140
293 297 293 290 285 289 290 290 289 288 288 284 281 272 261 246 237 227 224 223 228 226 212 210 203 203 204 208 206 202 199 207 199 198 192 188 193 195 186 183 187 187 188 176 188 167 174 167 183 172 158 164 161 160 149 147 147 138 132 141 137 131 131 134 128 108 102 98 96 97 100 97 91 84 78 72 66 34 37 65 135 141 139 139 142
277 280 287 289 287 283 283 286 285 285 284 282 279 274 265 256 243 231 222 219 223 225 226 217 204 199 201 205 208 201 196 202 205 202 192 188 191 194 191 183 187 185 184 187 161 173 164 186 183 176 164 165 166 162 156 156 153 146 145 155 153 142 130 133 124 111 107 104 105 108 107 102 96 83 81 75 67 51 13 51 130 152 144 144 144
273 279 276 279 283 284 282 282 283 283 283 280 279 274 269 263 257 240 227 222 219 220 227 226 217 203 201 206 207 202 196 201 203 201 197 192 190 194 193 185 184 183 180 180 182 165 170 164 190 185 169 163 163 161 160 157 149 154 152 150 148 148 145 133 123 119 113 111 113 112 107 104 103 97 84 78 73 72 10 22 106 157 150 146 145
262 276 283 284 281 280 282 283 283 283 281 280 279 276 270 266 258 249 235 225 218 217 219 223 218 206 202 203 205 201 197 202 202 200 198 196 192 189 192 186 187 182 179 181 182 170 163 174 174 180 161 170 162 162 155 156 148 134 142 153 159 160 147 134 123 111 117 114 114 114 114 113 111 107 106 101 85 73 65 17 72 150 152 151 148
267 266 272 283 283 284 281 278 277 278 277 275 276 275 274 271 263 251 238 224 230 220 219 218 213 218 207 204 205 204 200 202 203 200 197 195 190 189 187 184 181 175 175 178 177 176 171 175 166 171 174 169 154 163 161 155 152 144 148 151 155 162 156 149 140 139 147 144 140 125 122 117 114 129 104 78 97 93 17 41 29 148 157 155 155
262 267 269 273 277 276 278 279 275 274 275 273 272 272 272 271 265 255 242 226 220 219 216 215 212 210 208 205 205 206 204 201 199 194 188 189 192 191 183 180 181 187 181 174 173 178 176 167 175 173 173 175 166 157 161 162 159 163 158 158 172 173 180 182 171 153 147 133 118 133 144 141 136 135 95 92 77 107 149 259 354 134 159 159 162
258 261 270 275 277 275 274 276 274 272 270 269 269 267 266 264 262 255 242 226 225 223 215 214 213 211 209 204 206 207 207 203 201 194 186 188 190 188 178 180 187 190 187 175 172 177 179 171 175 176 177 166 167 152 145 160 156 158 166 168 172 178 185 196 197 175 157 157 157 146 139 131 127 116 97 58 64 98 134 240 222 172 151 165 165
256 261 267 272 276 277 272 270 273 269 265 263 262 260 260 261 257 256 246 232 217 222 217 216 213 209 206 204 206 208 208 204 198 193 190 190 186 185 184 185 186 188 184 173 173 175 178 176 178 169 176 171 175 152 160 163 173 174 173 168 170 175 170 170 194 184 167 170 166 166 175 172 146 144 148 145 145 136 135 194 214 218 168 169 172
256 260 266 267 266 270 274 272 270 269 262 260 257 256 256 261 264 263 255 240 225 217 218 217 216 214 206 202 206 207 203 200 199 198 196 193 191 191 184 185 183 181 177 174 174 178 176 181 176 173 179 187 181 172 166 175 175 146 155 167 178 176 158 179 189 201 174 171 170 191 196 171 164 149 156 151 176 163 154 176 202 202 184 171 177
255 259 262 267 266 267 266 270 273 267 262 257 257 258 260 257 256 260 258 243 225 219 217 213 217 213 209 202 199 204 198 201 206 202 197 193 192 193 188 187 183 179 176 176 179 178 180 180 175 172 179 185 182 175 170 165 171 162 167 172 167 159 172 175 198 180 188 179 183 178 198 178 168 171 167 168 164 194 183 186 198 191 184 177 179
253 255 259 260 265 266 266 264 265 265 262 256 253 254 255 256 250 249 253 244 229 220 215 213 212 209 205 200 195 196 198 199 205 202 198 192 192 194 190 188 184 187 185 180 174 176 179 178 176 177 180 187 178 172 170 164 167 164 167 169 172 172 172 189 196 195 173 173 152 176 164 156 178 172 166 178 167 184 195 162 178 196 178 182 176
257 257 258 261 264 263 261 262 263 262 262 255 250 250 251 252 248 240 247 248 235 219 213 212 211 208 201 201 198 191 197 200 199 196 193 196 196 192 189 187 187 187 189 192 189 178 173 173 176 179 188 176 177 180 173 170 163 170 168 177 177 172 182 189 199 188 165 172 146 171 183 168 171 174 182 173 167 166 159 170 181 192 181 173 169
257 260 260 258 260 263 260 258 260 262 259 255 249 249 250 250 247 239 241 246 241 225 213 213 212 207 203 193 187 190 192 194 198 198 191 193 184 183 186 189 193 196 189 186 189 182 179 180 177 184 183 177 182 177 174 165 171 175 169 180 179 175 183 198 193 171 138 174 178 153 150 170 181 172 178 167 161 151 167 181 185 185 184 167 172
257 258 261 261 260 260 259 254 257 258 256 251 246 246 247 246 246 240 240 250 252 236 220 214 209 205 197 193 187 186 187 192 193 194 189 186 181 183 188 188 196 196 195 193 190 186 184 189 186 187 181 184 182 175 170 174 180 177 173 180 182 178 162 109 77 103 154 193 182 156 193 137 167 169 171 163 163 156 160 171 193 183 180 169 169
256 258 259 256 260 261 257 253 253 254 253 247 243 244 243 240 234 231 233 245 247 239 226 214 209 197 192 195 191 185 185 189 194 193 191 180 182 181 179 192 196 196 197 201 191 185 187 190 190 182 176 178 171 170 172 175 176 161 157 115 116 136 156 174 182 161 169 185 205 188 128 157 174 173 146 159 159 158 155 173 184 190 179 169 171
260 258 258 256 255 258 256 252 249 248 250 242 237 239 240 236 229 223 226 233 240 237 221 208 195 188 198 198 192 187 183 187 182 183 185 175 180 179 181 182 189 192 194 191 189 191 183 169 152 152 161 168 164 166 171 174 169 156 149 152 167 169 173 185 188 168 190 161 198 213 138 128 170 155 144 145 169 165 174 171 179 193 183 174 168
260 257 257 255 255 251 251 248 242 244 248 245 237 236 235 231 222 225 222 226 234 232 224 207 188 187 193 196 191 187 185 187 172 174 174 174 179 176 182 181 177 180 187 180 173 163 153 144 148 154 157 159 162 165 170 170 163 160 164 171 171 168 178 176 176 179 113 171 194 174 151 138 146 154 137 124 86 239 201 178 172 181 176 168 173
259 260 257 254 256 254 248 245 245 244 245 243 232 231 228 224 222 223 223 226 230 228 216 199 189 190 194 196 190 185 188 178 167 172 173 178 181 179 182 176 179 184 179 162 162 142 144 130 125 124 140 163 161 168 173 171 168 175 183 177 160 173 169 173 153 126 139 220 188 175 168 146 151 171 151 133 214 223 198 189 173 181 183 184 173